Location: Clarion
(42.7316°N, 93.7330°W)
Time: 08:27:48
(UTC+00:00)

BREEZE-M DEB (TANK) - Pass Details

Date: 22 April 2026
Orbit: 326 x 14621 km, 49.6° (Epoch: 16 May)

Event Time Altitude Azimuth Distance (km) Brightness Sun altitude
Rises 02:41:22 0° 300° (WNW) 5,722 10.3 -16.8°
Reaches altitude 10° 02:46:42 10° 297° (WNW) 3,300 8.5 -17.6°
Maximum altitude 02:52:48 52° 222° (SW) 695 3.8 -18.5°
Enters shadow 02:53:34 41° 175° (S) 733 3.6 -18.6°
